CAT,Max TemperatureF,Mean TemperatureF,Min TemperatureF,Max Dew PointF,MeanDew PointF,Min DewpointF,Max Humidity, Mean Humidity, Min Humidity, Max Sea Level PressureIn, Mean Sea Level PressureIn, Min Sea Level PressureIn, Max VisibilityMiles, Mean VisibilityMiles, Min VisibilityMiles, Max Wind SpeedMPH, Mean Wind SpeedMPH, Max Gust SpeedMPH,PrecipitationIn, CloudCover, Events, WindDirDegrees
2013-8-1,62,52,43,46,43,39,87,56,37,30.45,30.43,30.42,16,11,6,14,7,,0.00,6,,137
2013-8-2,62,54,45,46,46,45,93,70,43,30.42,30.41,30.39,19,15,6,12,5,,0.00,1,,130
2013-8-3,72,57,48,47,43,39,82,50,24,30.45,30.40,30.33,19,14,6,12,6,,0.00,6,,164
2013-8-4,70,52,37,45,41,36,93,66,27,30.36,30.32,30.27,19,13,6,12,2,,0.00,3,,125
2013-8-5,69,55,47,48,46,44,71,60,38,,,,16,16,16,8,4,,0.00,,Rain,-1
2013-8-6,73,58,42,48,43,38,93,59,18,30.24,30.24,30.24,19,18,16,7,2,,0.00,,,-1
2013-8-7,80,60,42,45,41,38,93,47,14,30.18,30.12,30.06,19,19,19,6,1,,0.00,,,-1
2013-8-8,83,66,50,45,41,36,71,45,11,30.12,30.11,30.09,19,19,19,10,2,,0.00,,,-1
2013-8-9,83,56,50,48,45,38,77,54,11,30.12,30.11,30.09,12,10,9,2,1,,0.00,,,60
2013-8-10,82,68,54,54,52,47,77,57,20,30.12,30.12,30.12,6,6,6,16,6,,0.00,,,155
2013-8-11,81,68,55,55,53,50,94,65,28,30.27,30.20,30.12,16,8,6,6,4,,0.00,8,,140
2013-8-12,89,71,54,47,44,37,67,44,9,30.15,30.13,30.12,9,8,6,9,7,,0.00,,,30
2013-8-13,85,68,50,44,40,37,42,25,11,30.09,30.04,30.01,9,8,6,6,3,,0.00,,,252
2013-8-14,84,58,53,39,37,36,30,24,18,30.06,30.06,30.06,9,9,9,1,1,,0.00,,,310
2013-8-15,86,69,52,52,41,34,51,33,14,30.04,30.03,30.01,9,9,9,16,4,,0.00,,,218
2013-8-16,84,66,50,53,50,42,100,70,14,30.18,30.15,30.12,6,4,3,6,2,,0.00,0,,170
2013-8-17,88,67,48,51,48,41,75,42,20,30.04,30.04,30.04,9,6,3,12,5,,0.00,,,190
2013-8-18,90,72,55,43,31,22,54,26,4,30.06,30.05,30.04,12,10,9,16,4,,0.00,,,270
2013-8-19,68,59,50,56,55,53,82,76,72,30.33,30.31,30.27,6,6,5,14,12,,0.00,7,,188
2013-8-20,77,55,55,50,48,46,82,67,52,30.33,30.33,30.33,19,13,6,14,9,,0.00,6,,120
2013-8-21,81,60,41,45,41,38,87,45,15,30.21,30.21,30.21,16,12,9,12,2,,0.00,,,-1
2013-8-22,90,66,51,41,36,30,67,33,12,30.15,30.13,30.12,16,16,16,13,4,,0.00,,,250
2013-8-23,87,66,55,54,52,48,94,58,24,30.27,30.27,30.27,9,8,6,12,5,,0.00,6,,-1
2013-8-24,84,64,47,54,41,24,100,51,5,30.24,30.24,30.24,12,9,3,13,3,,0.00,,Fog,-1
2013-8-25,83,70,56,50,43,30,56,35,12,30.36,30.31,30.27,9,9,9,23,13,,0.00,,,122
2013-8-26,77,63,51,54,51,46,94,68,29,30.36,30.34,30.33,12,10,6,17,5,,0.00,,,125
2013-8-27,73,52,45,47,43,39,58,44,29,30.30,30.30,30.30,12,12,12,5,2,,0.00,,,140
2013-8-28,83,62,42,40,34,30,66,35,11,30.24,30.23,30.21,19,14,9,11,3,,0.00,,,70
2013-8-29,87,68,49,40,34,25,62,33,5,30.12,30.12,30.12,12,11,9,12,2,,0.00,,,-1
2013-8-30,90,65,62,43,38,32,48,26,6,29.98,29.98,29.98,12,9,6,17,15,,0.00,,,10
2013-8-31,82,76,64,34,32,30,20,17,10,30.01,29.99,29.95,12,9,6,13,7,,0.00,,,265